Wind_Speed
21 23 24 25 24 22 21 17 16 16 18 20 21 21 23 22 20 22 22 21 21 21
19 20 23 23 23 22 23 22 22 21 21 24 23 22 22 22 22 21 20 22 22 22
18 18 19 20 21 22 23 22 23 23 24 23 20 20 19 20 21 21 22 23 23 22
17 16 16 16 16 16 17 18 18 18 17 18 20 21 19 20 21 21 22 22 23 22
18 17 17 16 15 14 15 16 16 17 18 18 16 18 18 19 20 21 21 21 22 21
14 14 14 14 15 15 15 15 16 16 15 15 16 17 18 18 20 21 22 23 22 21
12 12 13 14 15 15 16 16 16 16 15 15 16 16 17 18 19 20 21 23 22 20
12 13 14 15 16 16 16 16 15 14 14 14 15 16 17 18 19 20 22 21 19 19
15 15 14 15 15 15 15 15 14 13 13 13 14 15 17 18 18 20 22 23 14 12
16 16 16 15 15 15 15 15 15 14 14 13 14 16 18 18 19 18 20 18 11 10
17 17 17 16 16 16 16 16 16 16 15 15 15 18 19 19 17 16 15 14 10 11
18 17 17 17 17 17 18 18 17 18 18 17 17 17 18 18 17 14 13 13 12 12
21 19 17 16 16 17 19 18 19 19 20 19 18 17 15 15 17 14 13 14 13 14
18 20 18 17 17 17 18 20 20 20 21 20 18 15 14 13 17 14 15 16 14 14
Wind_Direction
259 262 263 261 259 259 255 250 246 242 239 245 251 253 262 267 275 280 284 286 285 284
258 259 261 262 263 259 248 245 242 241 243 238 248 256 267 276 278 281 286 287 287 286
264 262 261 260 258 254 251 247 245 244 240 240 249 265 271 278 281 287 288 287 288 288
259 259 260 262 262 257 249 243 239 234 237 247 263 275 278 283 284 285 286 289 287 287
251 256 261 262 258 250 243 237 236 241 250 258 261 270 276 281 285 289 291 290 288 285
251 251 250 249 248 245 241 240 241 246 252 260 266 272 280 287 292 296 296 293 289 285
248 240 238 238 241 242 242 240 240 243 249 257 267 276 283 287 291 295 299 294 285 281
239 237 241 241 238 237 236 237 239 246 254 263 270 277 282 288 296 300 306 304 290 281
241 241 245 241 235 233 236 241 247 253 260 267 274 280 288 295 300 305 311 314 298 284
245 246 248 241 236 237 241 246 253 256 262 273 281 285 289 294 298 303 310 312 286 272
245 246 243 242 245 246 248 254 256 260 264 275 285 286 287 289 290 295 302 301 272 261
242 247 248 248 251 253 252 254 259 263 269 278 284 284 284 281 288 291 296 287 263 258
241 241 249 253 253 253 253 255 258 265 272 279 285 282 275 278 292 293 288 278 257 252
239 235 244 248 251 254 256 256 258 265 272 279 284 278 269 268 279 283 276 274 254 249
Height
1496 1498 1498 1500 1503 1504 1507 1510 1511 1512 1515 1520 1522 1522 1522 1522 1522 1522 1522 1522 1521 1520
1491 1493 1494 1496 1499 1500 1503 1504 1506 1508 1511 1515 1517 1517 1517 1518 1517 1517 1516 1516 1515 1514
1486 1489 1491 1492 1493 1495 1498 1500 1502 1504 1506 1509 1511 1512 1512 1510 1511 1510 1510 1509 1509 1508
1485 1487 1487 1487 1489 1491 1492 1494 1497 1500 1502 1504 1506 1506 1506 1505 1505 1504 1505 1503 1502 1502
1481 1482 1481 1482 1484 1486 1488 1490 1492 1495 1498 1499 1499 1500 1500 1500 1499 1498 1497 1497 1496 1496
1476 1477 1478 1480 1481 1483 1485 1487 1489 1490 1492 1493 1494 1495 1495 1494 1493 1492 1491 1491 1489 1488
1472 1474 1474 1476 1478 1481 1482 1484 1485 1487 1487 1489 1489 1489 1489 1489 1488 1488 1486 1484 1482 1481
1469 1470 1471 1473 1474 1476 1478 1480 1480 1482 1483 1483 1484 1484 1484 1484 1483 1482 1480 1478 1475 1475
1466 1466 1467 1468 1469 1471 1473 1476 1476 1478 1479 1480 1480 1480 1479 1478 1477 1476 1474 1471 1471 1472
1461 1461 1463 1464 1464 1466 1469 1471 1473 1473 1474 1475 1475 1474 1474 1473 1472 1471 1470 1469 1468 1469
1455 1457 1458 1459 1460 1462 1464 1466 1468 1469 1469 1470 1469 1469 1468 1468 1468 1467 1466 1465 1465 1466
1449 1452 1453 1454 1455 1458 1459 1461 1463 1464 1464 1464 1463 1463 1463 1463 1463 1463 1462 1462 1462 1462
1444 1446 1447 1449 1451 1453 1455 1456 1457 1457 1458 1458 1458 1457 1457 1457 1457 1458 1458 1458 1458 1459
1438 1441 1443 1445 1446 1447 1449 1451 1451 1452 1453 1453 1452 1452 1452 1452 1452 1453 1453 1453 1454 1454